User: anonymous   Login
Location: Larkspur
(54.4391°N, 113.7691°W)
Time: 18:33:43
(UTC+00:00)
Language:

CZ-4C DEB - Orbit

View from above orbital plane
View from above orbital plane
View from above satellite
View from above satellite

Ground track
Ground track

The orbit data is extracted from the following two-line orbital elements,

1 43265U 18031G   24146.48455734  .00008169  00000-0  94540-3 0  9999
2 43265  97.8429 222.1948 0005022 190.6066 169.5044 14.85765394331947
Epoch (UTC): 25 May 2024 11:37:45
Eccentricity: 0.0005022
inclination: 97.8429°
perigee height: 607 km
apogee height: 614 km
right ascension of ascending node: 222.1948°
argument of perigee: 190.6066°
revolutions per day: 14.85765394
mean anomaly at epoch: 169.5044°
orbit number at epoch: 33194

The dashed part of the orbit path shows where the satellite is in the earth's shadow,  

DLR